"Pseudo-MPEC" for ZTs0058

Created 2023 Apr 3 12:22:11 UT using Find_Orb

Click here for an explanation of pseudo-MPECs

 
 Astrometry: 
     ZTs0058* C2023 03 29.20252 11 25 39.93 +29 44 54.8    ~3TBM 17.33iUNEOCPI41
     ZTs0058  C2023 03 29.20287 11 25 40.22 +29 43 52.5    ~3TBM 17.33iUNEOCPI41
     ZTs0058  C2023 03 29.31540 11 27 12.86 +23 28 22.9    ~3TBM 17.60gUNEOCPI41
     ZTs0058  C2023 03 29.31575 11 27 13.12 +23 27 14.4    ~3TBM 17.60gUNEOCPI41

Station data:
(I41) Palomar Mountain--ZTF  (N33.357338 W116.859780)  US/California.
   Observers B. T. Bolin, Z. T. F. Collaboration. Measurers B. T. Bolin,
   Z.-Y. Lin, F. J. Masci. 1.2-m f/2.4 Schmidt.

Orbital elements:  ZTs0058
   Perigee 2023 Mar 29.61955 +/- 22.5 TT = 14:52:08 (JD 2460033.11955)
Epoch 2023 Mar 29.0 TT = JDT 2460032.5                           AutoNEOCP
q454583.730 +/- 1.8e+7              (J2000 equator)
H   28.50 G 0.15                    Peri.  175.10039 +/- 33
                                    Node   354.70620 +/- 0.17
e  38.9569278 +/- 0.245             Incl.   83.70064 +/- 6
From 4 observations 2023 Mar. 29 (2.7 hr); mean residual 1".63
Residuals in arcseconds: 
230329 I41  .24+  1.9-    230329 I41  .14+  2.7-    
230329 I41  .24-  1.9+    230329 I41  .13-  2.7+    

Ephemerides (geocentric):
Date (UTC) HH   RA             Dec           delta  r     elong  mag " sig PA
---- --------  ------------   ------------  ------ ------ -----  --- --------
2023 04 03 12  13 13 16.912   -74 25 24.25  .01666 1.0057 110.7 22.1  31d  75
2023 04 03 13  13 13 49.967   -74 30 10.90  .01680 1.0057 110.6 22.1  31d  75
2023 04 03 14  13 14 22.815   -74 34 52.54  .01694 1.0058 110.5 22.1  31d  75
2023 04 03 15  13 14 55.455   -74 39 29.29  .01708 1.0058 110.5 22.1  31d  75
2023 04 03 16  13 15 27.890   -74 44 01.27  .01721 1.0059 110.4 22.2  31d  75
2023 04 03 17  13 16 00.121   -74 48 28.59  .01735 1.0059 110.4 22.2  31d  76
2023 04 03 18  13 16 32.149   -74 52 51.36  .01749 1.0060 110.3 22.2  31d  76
2023 04 03 19  13 17 03.977   -74 57 09.69  .01762 1.0060 110.2 22.2  31d  76
2023 04 03 20  13 17 35.605   -75 01 23.68  .01776 1.0060 110.2 22.2  31d  76
2023 04 03 21  13 18 07.034   -75 05 33.45  .01790 1.0061 110.1 22.3  31d  76
2023 04 03 22  13 18 38.267   -75 09 39.07  .01803 1.0061 110.1 22.3  31d  76
2023 04 03 23  13 19 09.305   -75 13 40.66  .01817 1.0062 110.0 22.3  31d  77
2023 04 04 00  13 19 40.148   -75 17 38.29  .01831 1.0062 110.0 22.3  31d  77
2023 04 04 01  13 20 10.798   -75 21 32.06  .01845 1.0063 109.9 22.3  31d  77
2023 04 04 02  13 20 41.257   -75 25 22.07  .01858 1.0063 109.9 22.3  31d  77
2023 04 04 03  13 21 11.526   -75 29 08.38  .01872 1.0064 109.8 22.4  31d  77
2023 04 04 04  13 21 41.607   -75 32 51.08  .01886 1.0064 109.8 22.4  31d  77
2023 04 04 05  13 22 11.500   -75 36 30.26  .01899 1.0065 109.7 22.4  31d  77
2023 04 04 06  13 22 41.206   -75 40 05.99  .01913 1.0065 109.7 22.4  31d  78
2023 04 04 07  13 23 10.728   -75 43 38.34  .01927 1.0065 109.6 22.4  31d  78
2023 04 04 08  13 23 40.067   -75 47 07.39  .01941 1.0066 109.6 22.4  31d  78
2023 04 04 09  13 24 09.224   -75 50 33.21  .01954 1.0066 109.5 22.5  31d  78
2023 04 04 10  13 24 38.199   -75 53 55.86  .01968 1.0067 109.5 22.5  31d  78
2023 04 04 11  13 25 06.995   -75 57 15.42  .01982 1.0067 109.5 22.5  31d  78
2023 04 04 12  13 25 35.612   -76 00 31.95  .01996 1.0068 109.4 22.5  31d  78
2023 04 04 13  13 26 04.053   -76 03 45.51  .02009 1.0068 109.4 22.5  31d  78
2023 04 04 14  13 26 32.317   -76 06 56.16  .02023 1.0069 109.3 22.5  31d  78
2023 04 04 15  13 27 00.407   -76 10 03.97  .02037 1.0069 109.3 22.6  31d  78
2023 04 04 16  13 27 28.323   -76 13 08.99  .02050 1.0070 109.3 22.6  31d  79
2023 04 04 17  13 27 56.067   -76 16 11.29  .02064 1.0070 109.2 22.6  31d  79
2023 04 04 18  13 28 23.640   -76 19 10.90  .02078 1.0071 109.2 22.6  30d  79
2023 04 04 19  13 28 51.044   -76 22 07.90  .02092 1.0071 109.1 22.6  30d  79
2023 04 04 20  13 29 18.278   -76 25 02.32  .02105 1.0072 109.1 22.6  30d  79
2023 04 04 21  13 29 45.345   -76 27 54.23  .02119 1.0072 109.1 22.6  30d  79
2023 04 04 22  13 30 12.246   -76 30 43.67  .02133 1.0073 109.0 22.7  30d  79
2023 04 04 23  13 30 38.981   -76 33 30.69  .02147 1.0073 109.0 22.7  30d  79
2023 04 05 00  13 31 05.553   -76 36 15.34  .02160 1.0073 109.0 22.7  30d  79
2023 04 05 01  13 31 31.961   -76 38 57.66  .02174 1.0074 108.9 22.7  30d  79
2023 04 05 02  13 31 58.208   -76 41 37.70  .02188 1.0074 108.9 22.7  30d  79
2023 04 05 03  13 32 24.294   -76 44 15.50  .02202 1.0075 108.9 22.7  30d  79
2023 04 05 04  13 32 50.221   -76 46 51.11  .02215 1.0075 108.9 22.8  30d  79
2023 04 05 05  13 33 15.989   -76 49 24.56  .02229 1.0076 108.8 22.8  30d  79
2023 04 05 06  13 33 41.600   -76 51 55.90  .02243 1.0076 108.8 22.8  30d  79
2023 04 05 07  13 34 07.054   -76 54 25.17  .02257 1.0077 108.8 22.8  30d  79
2023 04 05 08  13 34 32.353   -76 56 52.40  .02270 1.0077 108.7 22.8  30d  80
2023 04 05 09  13 34 57.499   -76 59 17.64  .02284 1.0078 108.7 22.8  30d  80
2023 04 05 10  13 35 22.491   -77 01 40.91  .02298 1.0078 108.7 22.8  29d  80
2023 04 05 11  13 35 47.331   -77 04 02.26  .02312 1.0079 108.7 22.8  29d  80